Location: ??????
(38.5153°N, 23.0340°E)
Time: 13:58:18
(UTC+00:00)

Cosmos-2242 - Pass Details

Date: 13 December 2025
Orbit: 566 x 591 km, 82.5° (Epoch: 17 January)

Event Time Altitude Azimuth Distance (km) Brightness Sun altitude
Rises 17:01:37 0° 204° (SSW) 2,806 7.0 -21.6°
Reaches altitude 10° 17:03:56 10° 213° (SSW) 1,912 6.2 -22.0°
Maximum altitude 17:07:52 38° 281° (WNW) 915 4.4 -22.8°
Drops below altitude 10° 17:11:51 10° 351° (N) 1,929 5.6 -23.6°
Enters shadow 17:12:13 - 352° (N) 2,069 5.7 -23.6°
